This is the latest recevied weather packets stored in our database for station/object N8VDS-10. If no packets are shown the sender has not sent any weather packets the latest 10 day(s).
| Time | Temp. | Humidity | Pressure | Rain* | Wind** | Luminosity | Snow |
|---|---|---|---|---|---|---|---|
| 1777434757 | 11.11° C | 80% | 1018.1 hPa | 0 mm | - | 0 W/m² | - |
| 1777434455 | 11.11° C | 81% | 1018.1 hPa | 0 mm | - | 0 W/m² | - |
| 1777434154 | 11.11° C | 79% | 1017.9 hPa | 0 mm | - | 0 W/m² | - |
| 1777433850 | 11.11° C | 79% | 1017.9 hPa | 0 mm | - | 0 W/m² | - |
| 1777433546 | 11.11° C | 79% | 1017.9 hPa | 0 mm | - | 0 W/m² | - |
| 1777433241 | 11.11° C | 80% | 1017.9 hPa | 0 mm | - | 0 W/m² | - |
| 1777432938 | 10.56° C | 79% | 1018 hPa | 0 mm | - | 0 W/m² | - |
| 1777432638 | 10.56° C | 79% | 1018.1 hPa | 0 mm | - | 0 W/m² | - |
| 1777432336 | 10.56° C | 81% | 1017.8 hPa | 0 mm | - | 0 W/m² | - |
| 1777432035 | 10° C | 84% | 1017.8 hPa | 0 mm | - | 0 W/m² | - |
| 1777431731 | 10° C | 84% | 1017.7 hPa | 0 mm | - | 0 W/m² | - |
| 1777431427 | 10° C | 84% | 1017.5 hPa | 0 mm | - | 0 W/m² | - |
| 1777431123 | 10° C | 84% | 1017.2 hPa | 0 mm | - | 0 W/m² | - |
| 1777430818 | 10° C | 82% | 1016.8 hPa | 0 mm | - | 0 W/m² | - |
| 1777430515 | 10° C | 81% | 1016.6 hPa | 0 mm | - | 0 W/m² | - |
| 1777430210 | 10.56° C | 82% | 1016.5 hPa | 0 mm | - | 0 W/m² | - |
| 1777429905 | 10.56° C | 81% | 1016.3 hPa | 0 mm | - | 0 W/m² | - |
| 1777429603 | 10.56° C | 80% | 1016.4 hPa | 0 mm | - | 0 W/m² | - |
| 1777429298 | 10.56° C | 81% | 1016.4 hPa | 0 mm | - | 0 W/m² | - |
| 1777428994 | 11.11° C | 79% | 1016.2 hPa | 0 mm | - | 0 W/m² | - |
| 1777428691 | 11.11° C | 78% | 1016.3 hPa | 0 mm | - | 0 W/m² | - |
| 1777428386 | 11.11° C | 78% | 1016.5 hPa | 0 mm | - | 0 W/m² | - |
| 1777428082 | 11.11° C | 78% | 1016.7 hPa | 0 mm | - | 0 W/m² | - |
| 1777427778 | 11.67° C | 77% | 1016.7 hPa | 0 mm | - | 0 W/m² | - |
| 1777427476 | 11.67° C | 77% | 1016.7 hPa | 0 mm | - | 0 W/m² | - |
* Rain latest hour (hover to see other rain measurements)
** Current wind speed in m/s (hover to see current wind gust speed)